Previsão horária em Barra Patuca

Hoje, 22 Outubro, Quinta-feira

Tempo Temperatura Precipitação Vento Pressão Humidade
00:00 +27°C° 0 mm 3 m/s 756 mmHg 91%
01:00 +27°C° 0.1 mm 3 m/s 756 mmHg 92%
02:00 +27°C° 0.1 mm 3 m/s 756 mmHg 93%
03:00 +26°C° 0.1 mm 3 m/s 756 mmHg 94%
04:00 +26°C° 0 mm 3 m/s 756 mmHg 94%
05:00 +26°C° 0 mm 3 m/s 756 mmHg 94%
06:00 +26°C° 0 mm 3 m/s 756 mmHg 94%
07:00 +28°C° 0.8 mm 3 m/s 757 mmHg 87%
08:00 +29°C° 0.8 mm 2 m/s 757 mmHg 81%
09:00 +31°C° 0.8 mm 2 m/s 758 mmHg 74%
10:00 +33°C° 0.4 mm 3 m/s 757 mmHg 72%
11:00 +33°C° 0.4 mm 3 m/s 757 mmHg 69%
12:00 +34°C° 0.4 mm 3 m/s 756 mmHg 67%
13:00 +33°C° 0.1 mm 4 m/s 756 mmHg 68%
14:00 +33°C° 0.1 mm 4 m/s 755 mmHg 69%
15:00 +32°C° 0.1 mm 4 m/s 755 mmHg 70%
16:00 +30°C° 0 mm 4 m/s 755 mmHg 76%
17:00 +29°C° 0 mm 3 m/s 756 mmHg 81%
18:00 +28°C° 0 mm 3 m/s 756 mmHg 87%
19:00 +28°C° 0.6 mm 2 m/s 757 mmHg 88%
20:00 +28°C° 0.6 mm 2 m/s 757 mmHg 90%
21:00 +28°C° 0.6 mm 2 m/s 758 mmHg 92%
22:00 +27°C° 0.5 mm 2 m/s 758 mmHg 93%
23:00 +27°C° 0.5 mm 2 m/s 757 mmHg 94%

Amanhã, 23 Outubro, Sexta-feira

Tempo Temperatura Precipitação Vento Pressão Humidade
00:00 +27°C° 0.5 mm 1 m/s 757 mmHg 95%
01:00 +27°C° 0.1 mm 1 m/s 757 mmHg 95%
02:00 +26°C° 0.1 mm 1 m/s 757 mmHg 95%
03:00 +26°C° 0.1 mm 1 m/s 756 mmHg 96%
04:00 +26°C° 0.4 mm 1 m/s 757 mmHg 96%
05:00 +26°C° 0.4 mm 2 m/s 757 mmHg 97%
06:00 +25°C° 0.4 mm 2 m/s 757 mmHg 98%
07:00 +27°C° 0.4 mm 2 m/s 757 mmHg 92%
08:00 +29°C° 0.4 mm 2 m/s 758 mmHg 86%
09:00 +30°C° 0.4 mm 2 m/s 758 mmHg 80%
10:00 +31°C° 0.1 mm 2 m/s 757 mmHg 74%
11:00 +32°C° 0.1 mm 2 m/s 757 mmHg 68%
12:00 +34°C° 0.1 mm 3 m/s 757 mmHg 61%
13:00 +34°C° 0 mm 3 m/s 756 mmHg 64%
14:00 +33°C° 0 mm 3 m/s 756 mmHg 67%
15:00 +33°C° 0 mm 4 m/s 755 mmHg 70%
16:00 +31°C° 0.1 mm 3 m/s 755 mmHg 75%
17:00 +29°C° 0.1 mm 3 m/s 756 mmHg 81%
18:00 +28°C° 0.1 mm 3 m/s 756 mmHg 87%
19:00 +28°C° 0.3 mm 2 m/s 757 mmHg 88%
20:00 +28°C° 0.3 mm 2 m/s 757 mmHg 89%
21:00 +28°C° 0.3 mm 2 m/s 758 mmHg 89%
22:00 +28°C° 0.1 mm 1 m/s 758 mmHg 90%
23:00 +27°C° 0.1 mm 1 m/s 758 mmHg 90%

Depois de amanhã, 24 Outubro, Sábado

Tempo Temperatura Precipitação Vento Pressão Humidade
00:00 +25°C° 0.1 mm 0 m/s 757 mmHg 90%
01:00 +27°C° 0 mm 1 m/s 757 mmHg 91%
02:00 +27°C° 0 mm 1 m/s 757 mmHg 92%
03:00 +26°C° 0 mm 1 m/s 757 mmHg 92%
04:00 +26°C° 0.1 mm 1 m/s 757 mmHg 94%
05:00 +26°C° 0.1 mm 1 m/s 757 mmHg 95%
06:00 +26°C° 0.1 mm 2 m/s 757 mmHg 96%
07:00 +28°C° 0 mm 1 m/s 758 mmHg 87%
08:00 +30°C° 0 mm 1 m/s 758 mmHg 78%
09:00 +30°C° 0 mm 0 m/s 758 mmHg 69%
10:00 +32°C° 0 mm 1 m/s 758 mmHg 69%
11:00 +32°C° 0 mm 1 m/s 757 mmHg 69%
12:00 +32°C° 0 mm 2 m/s 756 mmHg 68%
13:00 +32°C° 0.3 mm 2 m/s 756 mmHg 70%
14:00 +31°C° 0.3 mm 2 m/s 755 mmHg 72%
15:00 +31°C° 0.3 mm 2 m/s 755 mmHg 74%
16:00 +30°C° 0.1 mm 2 m/s 755 mmHg 77%
17:00 +29°C° 0.1 mm 1 m/s 756 mmHg 81%
18:00 +28°C° 0.1 mm 1 m/s 756 mmHg 85%
19:00 +27°C° 0 mm 1 m/s 757 mmHg 85%
20:00 +27°C° 0 mm 1 m/s 757 mmHg 86%
21:00 +25°C° 0 mm 0 m/s 758 mmHg 87%
22:00 +25°C° 0 mm 0 m/s 758 mmHg 89%
23:00 +24°C° 0 mm 0 m/s 757 mmHg 91%

, 25 Outubro, Domingo

Tempo Temperatura Precipitação Vento Pressão Humidade
00:00 +26°C° 0 mm 1 m/s 757 mmHg 93%
01:00 +24°C° 0 mm 0 m/s 757 mmHg 94%
02:00 +23°C° 0 mm 0 m/s 757 mmHg 94%
03:00 +23°C° 0 mm 0 m/s 756 mmHg 95%
04:00 +25°C° 0 mm 1 m/s 757 mmHg 94%
05:00 +26°C° 0 mm 1 m/s 757 mmHg 94%
06:00 +26°C° 0 mm 1 m/s 757 mmHg 94%
07:00 +28°C° 0.3 mm 1 m/s 758 mmHg 87%
08:00 +28°C° 0.3 mm 0 m/s 758 mmHg 80%
09:00 +29°C° 0.3 mm 0 m/s 759 mmHg 74%
10:00 +32°C° 0.5 mm 1 m/s 758 mmHg 74%
11:00 +32°C° 0.5 mm 1 m/s 757 mmHg 73%
12:00 +32°C° 0.5 mm 2 m/s 757 mmHg 73%
13:00 +31°C° 0.5 mm 2 m/s 756 mmHg 75%
14:00 +31°C° 0.5 mm 3 m/s 756 mmHg 77%
15:00 +30°C° 0.5 mm 3 m/s 755 mmHg 79%
16:00 +29°C° 1.1 mm 3 m/s 756 mmHg 83%
17:00 +28°C° 1.1 mm 3 m/s 756 mmHg 87%
18:00 +27°C° 1.1 mm 3 m/s 757 mmHg 91%
19:00 +27°C° 1.5 mm 3 m/s 757 mmHg 91%
20:00 +27°C° 1.5 mm 2 m/s 757 mmHg 91%
21:00 +27°C° 1.5 mm 2 m/s 758 mmHg 92%
22:00 +27°C° 1 mm 2 m/s 757 mmHg 92%
23:00 +27°C° 1 mm 1 m/s 757 mmHg 93%

25 Outubro, Domingo

Tempo Temperatura Precipitação Vento Pressão Humidade
00:00 +26°C° 0 mm 1 m/s 757 mmHg 93%
01:00 +24°C° 0 mm 0 m/s 757 mmHg 94%
02:00 +23°C° 0 mm 0 m/s 757 mmHg 94%
03:00 +23°C° 0 mm 0 m/s 756 mmHg 95%
04:00 +25°C° 0 mm 1 m/s 757 mmHg 94%
05:00 +26°C° 0 mm 1 m/s 757 mmHg 94%
06:00 +26°C° 0 mm 1 m/s 757 mmHg 94%
07:00 +28°C° 0.3 mm 1 m/s 758 mmHg 87%
08:00 +28°C° 0.3 mm 0 m/s 758 mmHg 80%
09:00 +29°C° 0.3 mm 0 m/s 759 mmHg 74%
10:00 +32°C° 0.5 mm 1 m/s 758 mmHg 74%
11:00 +32°C° 0.5 mm 1 m/s 757 mmHg 73%
12:00 +32°C° 0.5 mm 2 m/s 757 mmHg 73%
13:00 +31°C° 0.5 mm 2 m/s 756 mmHg 75%
14:00 +31°C° 0.5 mm 3 m/s 756 mmHg 77%
15:00 +30°C° 0.5 mm 3 m/s 755 mmHg 79%
16:00 +29°C° 1.1 mm 3 m/s 756 mmHg 83%
17:00 +28°C° 1.1 mm 3 m/s 756 mmHg 87%
18:00 +27°C° 1.1 mm 3 m/s 757 mmHg 91%
19:00 +27°C° 1.5 mm 3 m/s 757 mmHg 91%
20:00 +27°C° 1.5 mm 2 m/s 757 mmHg 91%
21:00 +27°C° 1.5 mm 2 m/s 758 mmHg 92%
22:00 +27°C° 1 mm 2 m/s 757 mmHg 92%
23:00 +27°C° 1 mm 1 m/s 757 mmHg 93%

26 Outubro, Segunda-feira

Tempo Temperatura Precipitação Vento Pressão Humidade
00:00 +26°C° 1 mm 1 m/s 757 mmHg 93%
01:00 +26°C° 0.9 mm 1 m/s 757 mmHg 94%
02:00 +26°C° 0.9 mm 1 m/s 757 mmHg 95%
03:00 +25°C° 0.9 mm 1 m/s 756 mmHg 96%
04:00 +26°C° 1.3 mm 2 m/s 757 mmHg 95%
05:00 +26°C° 1.3 mm 3 m/s 757 mmHg 94%
06:00 +26°C° 1.3 mm 4 m/s 758 mmHg 93%
07:00 +27°C° 2.1 mm 4 m/s 758 mmHg 93%
08:00 +28°C° 2.1 mm 5 m/s 758 mmHg 92%
09:00 +28°C° 2.1 mm 6 m/s 759 mmHg 91%
10:00 +29°C° 1.1 mm 6 m/s 758 mmHg 89%
11:00 +29°C° 1.1 mm 5 m/s 758 mmHg 87%
12:00 +29°C° 1.1 mm 5 m/s 757 mmHg 86%
13:00 +30°C° 0.5 mm 5 m/s 757 mmHg 85%
14:00 +30°C° 0.5 mm 5 m/s 756 mmHg 85%
15:00 +30°C° 0.5 mm 5 m/s 756 mmHg 84%
16:00 +29°C° 0.1 mm 4 m/s 756 mmHg 86%
17:00 +29°C° 0.1 mm 4 m/s 756 mmHg 88%
18:00 +28°C° 0.1 mm 4 m/s 757 mmHg 90%
19:00 +28°C° 0.4 mm 4 m/s 757 mmHg 91%
20:00 +28°C° 0.4 mm 4 m/s 758 mmHg 92%
21:00 +27°C° 0.4 mm 4 m/s 758 mmHg 92%
22:00 +27°C° 2 mm 5 m/s 758 mmHg 92%
23:00 +27°C° 2 mm 5 m/s 758 mmHg 93%

27 Outubro, Terça-feira

Tempo Temperatura Precipitação Vento Pressão Humidade
00:00 +27°C° 2 mm 5 m/s 758 mmHg 93%
01:00 +27°C° 1.8 mm 5 m/s 757 mmHg 93%
02:00 +27°C° 1.8 mm 5 m/s 757 mmHg 93%
03:00 +27°C° 1.8 mm 5 m/s 757 mmHg 93%
04:00 +26°C° 0.7 mm 4 m/s 757 mmHg 93%
05:00 +26°C° 0.7 mm 4 m/s 758 mmHg 93%
06:00 +26°C° 0.7 mm 3 m/s 758 mmHg 93%
07:00 +26°C° 0.3 mm 3 m/s 759 mmHg 92%
08:00 +27°C° 0.3 mm 2 m/s 759 mmHg 90%
09:00 +28°C° 0.3 mm 2 m/s 759 mmHg 89%
10:00 +29°C° 0.4 mm 2 m/s 759 mmHg 85%
11:00 +30°C° 0.4 mm 1 m/s 758 mmHg 81%
12:00 +31°C° 0.4 mm 1 m/s 758 mmHg 78%
13:00 +31°C° 0.2 mm 2 m/s 757 mmHg 77%
14:00 +31°C° 0.2 mm 3 m/s 757 mmHg 77%
15:00 +31°C° 0.2 mm 3 m/s 756 mmHg 77%
16:00 +30°C° 0 mm 4 m/s 756 mmHg 81%
17:00 +29°C° 0 mm 4 m/s 757 mmHg 85%
18:00 +28°C° 0 mm 4 m/s 757 mmHg 90%
19:00 +27°C° 0.2 mm 4 m/s 757 mmHg 91%
20:00 +27°C° 0.2 mm 4 m/s 758 mmHg 92%
21:00 +27°C° 0.2 mm 3 m/s 758 mmHg 93%
22:00 +27°C° 0.4 mm 3 m/s 758 mmHg 94%
23:00 +27°C° 0.4 mm 3 m/s 758 mmHg 94%
Mostrar mais